Regional Weather Roundup
Issued by NWS

Home | Current Version | Previous Version | Graphics & Text | Print | Product List | Glossary On
Versions: 1 2 3 4 5 6 7 8 9 10 11 12 13 14 15 16 17 18 19 20 21 22 23 24 25 26 27 28 29 30 31 32 33 34 35 36 37 38 39 40 41 42 43 44 45 46 47 48 49 50
271
ASUS43 KIND 180209
RWRIN

WEATHER ROUNDUP FOR INDIANA
NATIONAL WEATHER SERVICE INDIANAPOLIS IN
900 PM EST FRI NOV 17 2017

NOTE: "FAIR" INDICATES FEW OR NO CLOUDS BELOW 12,000 FEET WITH NO
SIGNIFICANT WEATHER AND/OR OBSTRUCTIONS TO VISIBILITY.

* - STATION DOES NOT REPORT WEATHER SUCH AS PRECIPITATION OR FOG.

+ - STATION NOT QUALITY CONTROLLED BY THE NATIONAL WEATHER SERVICE.
    USE DATA WITH CAUTION...ESPECIALLY DEWPOINT AND RELATIVE
    HUMIDITY OBSERVATIONS.

INZ001>003-010>013-019-020-180300-
NORTHWEST INDIANA

CITY           SKY/WX    TMP DP  RH WIND       PRES   REMARKS
GARY /AIRPORT/ CLOUDY    43  41  93 S6        29.66F FOG
KNOX *+        CLOUDY    45  36  70 W8        29.70S
LA PORTE +     RAIN      41  38  90 S7        29.68F
MICHIGAN CITY+ LGT RAIN  41  41 100 S9        29.67F
MONTICELLO +   CLOUDY    46  32  58 S9G17     29.67F
RENSSELAER +   CLOUDY    45  34  65 S10       29.69R
VALPARAISO     LGT RAIN  45  39  79 S9        29.68F

$$

LMZ046-743>745-180300-
SOUTHERN LAKE MICHIGAN

STATION/POSITION TIME  TEMP    WIND        PRES    WAVE
                       AIR SEA DIR/SP/G            HT
                 (UTC) (F)     (DEG/KT/KT) (MB)    (FT)
BURNS HARBOR     0140   43     170/ 14/ 21 1004.7F
MICHIGAN CITY    0140   42     150/ 19/ 22   N/A

$$

INZ004-005-014>016-021>024-180300-
NORTH CENTRAL INDIANA

CITY           SKY/WX    TMP DP  RH WIND       PRES   REMARKS
ELKHART        TSTM      43  37  81 SE9       29.70F
GOSHEN         LGT RAIN  44  34  67 SE15G24   29.69F
LOGANSPORT +   CLOUDY    45  34  65 S18       29.70F
ROCHESTER +    CLOUDY    48  34  57 SE18G25   29.68F
SOUTH BEND     TSTM      41  41 100 SE14      29.68F FOG
WARSAW +       CLOUDY    43  34  70 SE8G20    29.71F

$$

INZ006>009-017-018-025>027-180300-
NORTHEAST INDIANA

CITY           SKY/WX    TMP DP  RH WIND       PRES   REMARKS
AUBURN +       CLOUDY    45  32  61 SE7       29.78F
FORT WAYNE     CLOUDY    46  35  65 S13       29.77F
HUNTINGTON +   MOCLDY    45  32  60 SE13G20   29.75F
KENDALLVILLE + LGT RAIN  43  35  72 S17G23    29.74F

$$

INZ028-029-035-036-043>045-051>053-180300-
WEST CENTRAL INDIANA

CITY           SKY/WX    TMP DP  RH WIND       PRES   REMARKS
CRAWFORDSVL +  CLOUDY    45  36  70 S14       29.73F
GREENCASTLE +  CLOUDY    46  34  61 S15       29.75F
LAFAYETTE      LGT RAIN  45  37  73 S10G22    29.70F
TERRE HAUTE    LGT RAIN  49  37  63 S15       29.75F

$$

INZ030>032-037>040-046>048-054>057-064-065-180300-
CENTRAL INDIANA

CITY           SKY/WX    TMP DP  RH WIND       PRES   REMARKS
CP ATTERBURY + CLOUDY    46  36  66 S9G20     29.83F
COLUMBUS       MOCLDY    46  32  57 S12       29.84F
FRANKFORT +    CLOUDY    48  36  61 S13G23    29.71F
GREENWOOD *+   CLOUDY    49  37  63 S12G20    29.80F
INDIANAPOLIS   CLOUDY    47  34  60 S14       29.77F
-EAGLE CREEK   MOCLDY    48  33  56 SE13G23   29.76F
KOKOMO +       CLOUDY    46  34  62 S21G29    29.72F
MARION +       CLOUDY    45  33  62 S20G25    29.76F HAZE
MT COMFORT *+  CLOUDY    46  37  71 S17       29.79F
SHELBYVILLE    CLOUDY    48  35  60 S16       29.80F
ZIONSVILLE +   MOCLDY    45  34  65 SE21      29.75F

$$

INZ033-034-041-042-049-050-058-059-180300-
EAST CENTRAL INDIANA

CITY           SKY/WX    TMP DP  RH WIND       PRES   REMARKS
MUNCIE         CLOUDY    48  32  53 S14G23    29.78F
RICHMOND +     MOCLDY    43  34  70 S14       29.85F

$$

INZ060-061-067>069-081>083-085>088-180300-
SOUTHWEST INDIANA

CITY           SKY/WX    TMP DP  RH WIND       PRES   REMARKS
EVANSVILLE     CLOUDY    53  42  66 S5        29.82S
HUNTINGBURG +  CLOUDY    53  40  61 SE10      29.82F
WASHINGTON +   CLOUDY    51  37  57 S14       29.80S

$$

INZ062-063-066-070>080-084-089>092-180300-
SOUTH CENTRAL AND SOUTHEAST INDIANA

CITY           SKY/WX    TMP DP  RH WIND       PRES   REMARKS
BLOOMINGTON    CLOUDY    48  35  60 S13       29.79F
MADISON *+     CLOUDY    46  34  61 SE6       29.88F
NORTH VERNON + CLOUDY    46  36  66 SE9       29.85F

$$





USA.gov is the U.S. government's official web portal to all federal, state and local government web resources and services.